Погода в Малом Хомутце

Россия / Липецкая область     52°47′33″N   39°44′52″E
темп.,
°C
ветер,
м/с
пор.,
м/с
влажн.,
%
обл.,
%
осадки,
мм/ч
давл.,
гПа
погр.,
м
8 августа, пн
пн800:00+21в2242100 0.0 101811
03:00+22вюв1141100 0.0 101812
06:00+21ссв1148100 0.0 101913
09:00+24св114375 0.0 1019137
12:00+29ююв2229100 0.0 1019458
15:00+32ю222056 0.0 10193216
18:00+30вюв222880 0.0 1018313
21:00+25ю123295 0.0 101816
9 августа, вт
вт900:00+23ю243734 0.0 101968
03:00+20ю1144100 0.0 101912
06:00+20ююв224993 0.0 101932
09:00+26юв12375 0.0 1018416
12:00+31ююв332862 0.0 10171436
15:00+30зюз773199 0.0 10161354
18:00+29з4539100 0.0 10161273
21:00+20с4107847 0.5 1017232
10 августа, ср
ср1000:00+19с479197 0.9 1018260
03:00+18с3590100 0.9 1018192
06:00+17ссз249299 0.0 1019187
09:00+20с3473100 0.0 1019419
12:00+25с445261 0.0 10181030
15:00+27ссв444598 0.0 10181254
18:00+25ссв4549100 0.0 10181032
21:00+20ссв5106795 0.0 1019321
11 августа, чт
чт1100:00+18ссв51174100 0.0 1020331
03:00+17ссв41178100 0.0 1020343
06:00+17ссв41080100 0.1 1021358
09:00+21св5660100 0.1 1022702
12:00+24всв7947100 0.0 1021836
15:00+28св553855 0.0 10211567
18:00+27ссв45415 0.0 10211105
21:00+21св37565 0.0 1022160
12 августа, пт
пт1200:00+19св365915 0.0 1022122
03:00+17св36645 0.0 1023115
06:00+17всв38665 0.0 1024187
09:00+24всв46504 0.0 1023550
12:00+29в45375 0.0 10231296
15:00+31в443277 0.0 10211857
18:00+30в34345 0.0 1021855
21:00+23всв364937 0.0 102298